SCOUT B-1 DEB, 8867

Orbit data source: Space-Track

SCOUT B-1 DEB, 8867 is space debris in SSO originally from a launch on Sat, 22 May 1976 UTC launched from the Air Force Western Test Range (AFWTR). Debris objects in space refer to the collection of defunct objects orbiting the Earth. Examples of debris include non-operational satellites, rocket bodies, and fragments generated from explosions, collisions, or faulty payload assembly.

Loading next visibility...
Identifier
8867, 1976-047C
Orbit
SSO
Country
Flag of USUS
Related business
Manufacturer
Unknown
Mission
Spacecraft
Bus & Motor
Unknown
Mass
Unknown
Launch date (UTC)
1976-05-22 (50 years ago)
Launch vehicle
Unknown
Launch site
Air Force Western Test Range (AFWTR)
Object type
Payload
Rocket body
Debris
Shape & HBR
Unknown shape, 0.1 m
Radar Cross Section
Medium (>0.1 m² and <1 m²)

Expand to show TLE details & history
Last TLE update: 2 days ago

TLE from 2 days ago
0 SCOUT B-1 DEB
1  8867U 76047C   26171.46945949  .00000070  00000-0  15281-3 0  9997
2  8867  99.2015 358.4296 0072796 281.9287 106.6816 13.57384938476312
Epoch: 2026-06-20T11:16Z
TLE epoch observation values (Epoch: 2026-06-20T11:16:01.299Z)
Latitude
29.03878°
Longitude
-84.39281°
Altitude
1,064.601 km
Speed
7.314 km/s
True Right ascension
23h 33m 11s
True Declination
28° 53' 57"
Sunlit
Object was in daylight at epoch
Visualization orbit readout
Latitude
Unknown
Longitude
Unknown
Altitude
Unknown
Speed
Unknown
Apparent Right ascension
Unknown
Apparent Declination
Unknown
Sunlit
N/A
Visualization observer readout
Local Sidereal Time
23:08:28
Azimuth
Unknown
Elevation
Unknown
Doppler factor
Unknown
Orbital elements
Apogee altitude
1,096.496 km
Perigee altitude
988.458 km
Semi-major axis
7,420.614 km
Eccentricity
0.00728
Inclination
99.2015°
RAAN
358.4296°
Arg. of periapsis
281.9287°
True anomaly
107.47857°
Mean anomaly
106.6816°
Eccentric anomaly
107.08029°
Mean motion
3.39534 °/min
Orbital period
106.03 mins
BSTAR
0.00015281
Loading maneuver chart data...
Computing Atmospheric mass density...
Loading historical data...
Loading historical data...
Loading historical data...
Loading historical data...
Loading historical data...
Loading historical data...
Loading historical data...
Other satellites on launch #47 in the year 1976 (1976-05-22 UTC)

Documentation

Showing up to 5 results
|